Vorticity
nan nan nan nan nan nan nan nan nan nan nan nan nan nan nan nan nan nan nan nan nan nan nan nan nan nan nan nan nan nan nan nan nan nan nan nan nan nan nan nan nan nan nan nan nan nan nan nan nan nan nan nan nan nan nan nan nan nan nan nan nan nan nan nan nan nan nan nan nan nan nan nan nan nan nan nan nan nan nan nan nan nan nan nan nan nan
nan 9 10 11 9 7 8 10 9 8 8 7 8 8 8 8 9 10 12 12 10 8 7 6 6 6 6 8 8 8 9 9 10 10 11 11 11 10 10 11 11 11 11 11 10 10 9 8 8 9 10 11 13 13 13 12 12 12 11 10 10 9 9 9 9 9 9 10 10 10 9 9 9 8 8 8 8 8 8 8 8 9 9 8 8 nan
nan 7 8 9 9 7 9 10 10 10 10 9 8 7 7 8 8 8 8 9 9 8 6 5 6 8 11 12 11 11 9 9 9 9 9 9 9 9 10 10 11 11 11 11 11 10 9 9 9 10 11 13 13 14 14 14 14 13 12 11 10 10 9 9 10 10 10 10 10 10 9 9 9 9 9 8 8 8 8 9 9 9 9 9 9 nan
nan 7 8 8 8 8 9 10 11 11 12 10 9 8 7 7 7 7 5 5 7 8 8 8 8 10 13 14 12 10 8 7 7 7 8 8 8 9 9 10 11 11 11 11 11 10 10 9 10 11 12 13 13 14 14 14 14 13 12 11 11 10 10 10 10 11 10 10 10 10 9 9 9 9 9 8 8 9 9 10 10 10 10 10 9 nan
nan 8 9 8 8 9 11 11 10 10 9 9 9 8 7 6 6 6 7 8 8 9 10 11 11 10 10 10 8 6 6 7 7 7 8 9 9 9 10 11 12 12 12 11 11 10 10 10 11 11 12 12 13 13 13 13 13 12 11 11 11 11 11 11 11 10 10 10 9 9 9 8 8 8 9 9 9 9 10 10 10 10 10 10 10 nan
nan 9 8 7 7 9 10 9 8 7 6 7 7 7 7 7 7 8 8 10 11 11 10 10 10 10 8 6 5 5 8 9 10 10 11 11 11 11 12 12 12 12 12 11 10 10 9 10 11 12 12 12 11 11 11 10 11 11 10 11 11 11 11 11 11 10 10 9 8 8 8 8 8 9 9 9 9 10 10 10 10 10 10 11 11 nan
nan 9 8 7 8 8 8 8 6 5 4 6 8 9 10 11 11 10 9 9 9 10 9 9 10 10 10 8 8 10 14 15 17 17 16 15 15 14 14 13 13 12 11 10 9 9 9 10 11 11 12 11 10 10 10 10 10 10 10 10 11 11 11 11 10 9 9 8 8 7 8 8 9 9 10 10 10 10 10 10 10 11 11 12 11 nan
nan 7 7 7 7 8 8 8 8 7 6 6 7 9 10 11 11 11 12 11 10 9 9 10 10 11 11 11 13 15 15 16 18 18 18 18 18 17 15 14 13 12 11 9 8 8 8 9 10 10 10 10 10 10 10 10 10 10 10 10 10 10 10 10 9 9 8 8 8 8 8 9 9 10 10 10 10 10 10 10 11 11 11 11 11 nan
nan 6 7 8 7 8 8 10 10 10 8 7 7 7 8 8 9 10 12 13 12 11 10 8 9 9 10 11 13 14 13 12 11 9 9 11 10 10 10 11 12 12 10 8 8 7 8 9 9 10 9 9 9 10 10 10 10 10 10 10 10 10 9 9 9 8 8 8 8 9 9 10 10 10 10 11 11 11 10 11 10 10 10 10 9 nan
nan 7 8 10 10 9 8 9 12 14 12 9 9 8 9 9 9 9 10 11 11 11 9 7 7 8 10 12 12 12 12 12 10 7 6 4 2 3 6 8 10 10 8 8 8 8 9 9 9 9 9 9 9 10 10 9 9 9 9 9 9 9 9 9 8 9 9 9 10 10 10 10 10 11 11 11 11 10 10 9 9 9 8 8 8 nan
nan 10 11 11 12 12 11 10 12 16 16 13 11 11 10 11 10 9 8 8 8 8 8 9 8 8 9 11 12 12 12 13 14 15 15 12 12 12 13 14 12 11 11 11 11 11 11 10 9 9 9 10 10 9 9 9 8 8 8 8 8 9 9 9 9 10 10 11 11 11 11 11 11 11 11 10 9 9 8 7 7 8 8 8 8 nan
nan 12 12 11 11 12 12 12 13 14 13 11 9 10 11 12 10 8 7 6 6 7 10 11 11 9 9 10 11 12 12 11 12 14 17 18 19 20 21 20 18 17 18 17 17 15 13 11 11 11 11 10 9 9 8 8 8 8 8 8 8 8 9 10 10 11 11 11 11 11 11 11 11 10 9 8 8 7 7 8 8 8 9 9 10 nan
nan 10 11 11 10 10 11 11 11 10 8 6 5 7 10 12 10 8 7 6 8 10 11 10 10 11 12 11 11 11 11 11 11 11 12 13 15 16 17 16 16 16 17 17 17 15 13 13 14 13 11 10 9 8 9 8 7 7 8 8 8 9 10 11 11 12 12 12 12 12 11 11 10 9 8 7 7 8 8 9 10 10 11 11 11 nan
nan 10 9 9 10 10 10 9 7 6 6 6 7 8 9 8 8 7 7 8 10 11 10 8 9 11 14 14 13 11 10 11 11 11 10 10 11 12 12 11 11 11 12 12 11 10 10 13 15 14 12 11 10 10 10 8 7 7 8 8 9 10 11 12 12 12 12 12 11 11 11 10 9 8 8 8 8 9 10 10 11 11 11 11 11 nan
nan 10 9 9 9 9 8 7 7 7 6 6 7 8 8 7 7 8 9 9 10 11 11 11 11 12 14 16 16 15 13 11 11 11 11 11 12 13 14 12 10 10 9 9 8 8 11 12 12 12 11 9 8 7 6 5 5 7 9 9 10 11 12 12 12 12 12 11 11 10 9 9 8 8 9 9 10 10 11 11 11 11 11 11 11 nan
nan 11 10 9 8 7 6 6 7 8 8 8 8 8 8 9 10 10 10 10 11 12 12 13 14 15 16 17 18 18 16 14 13 12 11 11 13 15 15 12 9 8 8 8 9 10 12 12 11 10 9 6 4 4 4 4 5 8 10 10 11 12 12 12 11 11 11 10 9 9 8 8 9 9 10 10 11 11 11 11 10 10 10 11 12 nan
nan 10 9 8 7 6 6 7 8 9 9 9 10 10 11 10 10 10 11 11 11 11 11 12 13 14 14 15 16 16 17 14 13 13 12 11 11 13 12 9 8 7 8 9 9 10 10 10 10 10 7 2 2 3 5 6 7 9 11 11 12 11 11 10 10 10 9 9 9 9 9 9 10 10 10 11 11 10 10 10 10 10 11 13 15 nan
nan 8 8 7 7 6 7 10 11 11 9 9 10 12 11 10 10 10 10 10 9 8 8 10 10 9 7 8 11 14 14 12 11 11 12 11 10 10 9 8 7 7 8 9 9 9 9 9 7 5 -1 -2 2 4 6 8 9 11 11 11 11 10 10 9 9 9 9 9 9 10 10 10 11 11 11 11 11 11 10 11 11 13 15 17 19 nan
nan 7 7 7 7 7 8 9 9 9 8 9 9 10 10 10 10 10 10 9 9 8 9 8 7 6 6 5 7 12 13 11 10 10 10 10 9 9 9 7 7 8 9 10 10 10 9 8 6 3 -0 2 4 6 7 9 11 11 11 10 10 9 9 9 9 9 10 10 10 11 11 11 11 11 11 11 11 12 13 15 16 18 19 19 19 nan
nan 7 7 7 8 9 10 9 7 6 5 7 8 10 10 10 10 10 10 9 9 9 10 9 8 7 8 8 9 12 13 12 10 9 9 10 10 10 9 8 8 9 9 10 10 10 9 9 8 8 7 6 6 6 9 11 11 11 10 9 8 8 9 9 10 10 10 11 11 11 11 11 11 11 11 12 14 15 17 19 20 20 18 16 14 nan
nan 9 8 7 7 9 9 8 6 5 5 7 10 12 13 11 11 10 9 10 10 10 9 9 10 10 9 9 12 15 14 10 8 8 10 11 11 11 11 10 10 9 9 10 10 10 10 9 10 9 6 3 4 7 9 11 11 10 9 8 8 8 9 10 10 11 11 11 11 11 11 11 11 12 12 14 16 18 19 18 17 16 14 12 10 nan
nan 8 7 8 9 9 7 6 7 9 11 14 15 14 14 12 11 11 11 11 12 12 11 11 11 12 10 11 11 16 14 9 8 7 9 11 11 11 11 11 11 10 10 10 10 10 10 10 9 6 2 2 5 8 10 12 11 9 7 7 8 9 10 11 11 11 11 11 11 12 11 11 12 12 13 15 16 16 15 14 12 11 11 11 11 nan
nan 8 9 12 13 12 11 11 14 16 19 20 17 14 12 11 11 12 13 13 13 13 14 14 14 14 13 12 11 12 11 11 9 8 8 9 10 10 10 11 10 9 9 10 10 11 10 9 8 6 5 5 8 10 11 11 9 7 7 8 9 10 11 11 11 11 11 12 12 12 12 12 12 13 14 14 13 12 10 9 9 9 10 12 11 nan
nan 11 13 15 14 13 13 12 13 15 17 17 16 14 12 12 12 12 13 13 13 13 14 13 13 13 13 12 11 11 12 11 9 8 8 9 10 10 10 10 10 9 9 10 11 11 10 9 8 9 8 9 10 10 10 9 7 6 6 8 9 10 10 10 11 11 12 12 12 12 12 12 12 13 13 12 10 9 8 8 8 9 11 12 12 nan
nan 13 12 8 4 3 3 3 3 4 6 9 10 12 13 12 12 13 12 12 12 11 10 9 10 11 12 13 13 14 15 13 9 6 7 10 11 11 10 11 11 10 10 11 11 10 8 7 8 10 10 11 10 9 8 6 5 5 7 9 10 10 10 10 11 12 12 12 12 12 11 11 11 11 11 10 9 8 7 8 9 10 12 13 13 nan
nan 5 -0 -5 -6 -5 -2 1 2 2 6 10 9 9 10 12 12 12 11 11 10 9 8 9 10 11 11 12 13 14 16 15 11 8 6 8 10 10 10 11 11 10 10 11 10 8 6 7 9 11 12 11 9 7 4 3 3 5 7 9 9 9 10 10 11 12 12 12 12 11 10 10 10 10 10 9 9 8 8 8 9 11 14 15 15 nan
nan -0 -1 0 2 5 7 8 9 9 14 15 13 12 13 13 12 11 10 11 10 9 8 9 10 11 12 12 13 15 15 14 12 11 9 7 8 9 10 10 10 11 11 10 9 7 6 8 10 12 13 12 9 2 -0 2 4 6 8 9 9 9 9 10 11 12 12 12 11 10 9 9 9 9 9 9 8 8 8 8 11 14 17 20 20 nan
nan 6 6 7 8 9 11 14 16 16 17 16 17 22 25 21 15 13 13 12 11 10 9 9 10 11 11 11 13 14 13 13 13 14 11 8 8 9 10 10 10 11 11 10 9 9 10 11 12 13 13 10 7 2 1 3 6 9 10 9 9 9 9 10 11 12 12 11 10 10 9 9 9 9 9 8 8 8 8 9 13 18 23 25 22 nan
nan 9 11 11 11 13 16 17 17 15 15 17 21 28 29 23 17 14 13 12 12 11 10 10 10 10 9 11 12 13 12 12 14 14 12 9 8 9 10 10 10 10 10 10 11 13 15 14 14 13 9 6 5 5 5 7 10 12 11 8 9 9 9 10 10 11 11 10 10 10 9 10 9 9 9 8 8 8 7 10 17 24 25 20 16 nan
nan 13 15 14 16 17 19 18 15 12 13 17 21 26 25 20 15 13 12 12 12 11 11 10 10 10 11 13 14 14 12 11 12 14 12 9 8 9 10 10 10 9 9 9 11 13 15 15 13 10 5 3 5 8 9 10 12 13 11 8 9 7 6 8 10 11 11 10 10 9 10 10 10 10 9 9 8 8 7 12 21 26 22 14 12 nan
nan 14 15 14 15 16 16 14 13 12 13 16 20 22 20 17 15 14 13 13 13 12 12 11 11 12 14 16 16 15 11 9 10 12 12 10 9 9 10 10 10 9 7 7 9 10 12 13 11 7 4 5 8 9 9 10 12 13 11 9 8 4 4 8 11 12 11 10 9 9 10 11 10 10 10 9 8 8 7 12 19 24 19 13 11 nan
nan 14 13 13 13 13 13 12 12 12 13 15 16 16 15 15 16 16 15 15 14 14 13 13 13 14 16 16 16 15 12 10 10 11 12 10 10 9 10 10 10 10 8 7 7 7 9 9 8 6 6 9 10 10 9 10 11 11 9 9 8 4 5 10 12 13 11 8 9 9 10 11 11 10 10 9 9 8 7 10 16 21 18 13 11 nan
nan 13 12 12 13 13 12 11 11 11 12 13 14 14 14 14 15 16 16 15 15 15 15 15 15 15 15 15 14 13 11 10 11 12 12 10 10 9 9 9 9 9 9 9 8 8 8 7 6 7 9 11 11 10 10 11 11 10 8 9 9 6 8 12 13 12 10 9 10 9 9 11 11 11 11 10 9 8 6 8 12 17 17 15 12 nan
nan 12 12 13 13 13 12 12 11 12 13 13 14 14 14 13 12 13 14 14 14 15 15 15 15 15 15 14 12 11 9 7 9 13 15 13 10 9 9 9 9 9 10 10 10 10 9 8 7 8 9 10 11 11 11 10 9 9 8 9 10 9 10 11 11 10 9 11 11 10 9 10 10 11 11 10 8 6 5 7 9 12 16 16 12 nan
nan 12 12 13 13 12 13 13 13 14 14 14 13 13 13 13 12 12 12 13 14 14 14 14 14 14 14 14 12 10 8 5 5 10 15 15 12 10 9 10 10 10 10 10 10 10 10 9 8 8 9 10 11 11 11 10 9 8 8 9 10 10 9 9 9 9 10 11 11 10 10 10 10 10 9 5 4 4 5 8 10 11 13 13 13 nan
nan 11 12 12 12 12 13 13 14 14 15 14 13 12 12 12 12 12 11 12 12 13 13 13 14 14 15 14 12 11 8 7 6 9 13 15 13 12 10 9 9 10 10 10 10 9 9 9 9 9 10 11 11 10 9 8 8 8 9 10 10 10 10 9 9 10 10 10 10 9 9 9 9 9 5 1 4 7 11 12 13 12 11 11 12 nan
nan 11 12 13 13 14 14 14 14 13 13 12 11 11 11 11 11 11 11 11 11 11 10 10 11 12 15 15 13 11 9 8 8 9 13 15 14 12 11 9 10 11 12 11 10 10 9 9 10 11 12 11 10 8 7 7 8 9 9 10 10 11 10 10 10 10 10 9 9 9 9 10 10 9 5 6 12 16 17 17 16 13 12 12 12 nan
nan 11 13 14 15 16 15 14 13 12 12 11 10 9 9 9 9 10 10 9 10 11 10 8 7 5 8 12 12 12 10 9 9 10 13 15 14 13 12 11 10 11 12 12 11 10 9 9 9 11 11 10 8 7 8 8 8 9 9 9 11 11 10 10 10 10 10 9 9 9 10 12 12 11 10 13 17 17 17 16 13 11 13 15 14 nan
nan 13 14 16 16 16 14 13 12 11 10 10 9 9 8 8 8 9 10 9 9 9 10 10 8 4 2 4 6 9 10 10 10 11 13 14 13 13 12 12 11 11 11 12 12 11 10 9 9 9 8 8 8 9 10 9 8 8 9 11 11 10 9 9 9 10 10 10 9 11 12 13 12 12 12 12 12 12 12 11 10 10 14 16 14 nan
nan 16 16 15 15 15 14 13 12 11 10 9 8 9 10 9 8 8 9 10 9 8 8 9 9 7 4 4 4 5 8 9 10 12 13 12 11 10 10 10 10 10 11 12 12 11 11 9 8 8 8 8 8 8 8 8 7 6 10 14 11 6 5 8 10 11 10 10 10 11 12 11 11 11 11 10 10 10 10 9 8 8 11 13 12 nan
nan 18 15 13 11 12 12 13 12 12 11 10 10 9 10 11 11 10 10 9 9 9 9 10 10 9 8 7 7 6 7 8 9 12 12 11 11 9 9 9 10 11 11 11 11 11 11 9 9 9 9 9 8 9 8 6 6 7 12 13 9 6 6 9 11 11 10 10 10 10 10 10 11 11 11 10 11 10 9 7 6 7 10 11 10 nan
nan 16 14 12 11 11 11 11 11 11 11 11 10 10 11 12 12 12 11 10 10 9 10 10 10 9 9 9 9 8 8 8 9 10 12 13 12 10 8 8 10 11 12 11 11 11 11 9 9 9 9 10 10 9 8 7 8 10 12 10 9 11 13 11 10 9 9 10 10 9 11 13 12 11 11 12 12 11 9 8 7 8 10 11 10 nan
nan 13 12 12 12 11 10 10 9 10 10 10 10 10 11 12 13 13 12 11 10 11 12 11 9 8 8 8 8 9 9 10 11 11 14 16 14 10 8 9 11 12 11 9 10 11 11 10 10 10 10 10 10 9 8 8 9 10 10 9 11 15 14 8 6 7 9 10 11 11 11 11 11 11 12 12 13 12 11 10 11 13 13 12 10 nan
nan 11 11 11 11 10 10 9 9 10 10 10 10 10 11 11 13 14 13 11 10 11 14 14 11 8 7 7 8 9 9 10 12 13 11 11 13 15 15 15 15 13 9 7 8 9 11 12 12 12 12 11 11 10 10 9 9 9 8 8 10 12 10 6 5 8 10 11 10 9 9 10 11 12 13 14 14 13 12 12 13 13 12 13 12 nan
nan 10 10 10 10 10 10 10 11 11 10 10 9 9 9 10 11 12 12 11 10 11 12 14 14 10 7 8 10 11 10 10 11 13 10 8 10 16 20 19 17 15 10 8 7 7 8 10 11 12 12 12 12 11 10 9 9 9 7 8 10 12 11 9 9 10 10 10 9 8 8 10 13 14 14 13 12 12 11 11 11 10 11 12 12 nan
nan 10 10 10 9 9 9 11 11 11 10 9 9 9 9 10 11 10 10 11 11 11 11 13 13 11 9 9 10 11 11 10 10 10 10 10 12 14 16 17 17 16 13 10 9 8 8 7 8 10 11 13 13 12 11 10 9 9 7 8 10 12 13 12 12 11 10 10 9 7 8 12 15 14 11 10 11 12 12 12 11 10 10 12 12 nan
nan 10 10 10 10 9 9 10 10 10 10 9 9 8 9 10 11 11 10 11 12 11 11 11 11 10 9 10 10 9 10 10 10 10 10 10 11 13 16 17 17 19 17 14 13 12 10 9 8 8 9 10 11 11 11 10 9 8 8 8 10 11 13 12 11 11 11 10 8 6 9 14 14 12 10 10 11 12 12 12 11 11 12 11 11 nan
nan 10 10 10 10 10 10 10 10 10 10 10 9 9 8 9 11 13 11 10 12 12 12 11 10 9 9 10 10 9 10 11 10 10 10 10 11 12 14 16 17 19 18 17 16 15 14 13 12 9 7 6 7 6 8 10 10 10 9 9 10 11 12 11 11 10 10 8 7 9 14 14 11 9 9 10 11 10 10 11 12 12 12 11 11 nan
nan 10 10 11 10 10 10 10 11 11 10 11 11 10 8 7 9 14 13 10 11 11 10 10 10 10 10 10 9 9 11 12 12 10 10 10 11 10 11 13 16 17 18 18 18 18 17 17 16 12 7 5 4 4 7 10 11 12 10 9 10 11 12 11 10 10 9 8 8 12 16 15 11 9 9 8 8 8 10 11 11 12 11 11 11 nan
nan 11 11 11 11 10 10 10 11 11 11 11 12 11 11 10 10 11 12 11 11 10 9 8 9 9 9 9 9 9 11 12 11 10 10 10 10 9 9 11 13 16 16 15 16 16 17 18 18 17 13 8 7 7 8 10 11 12 12 11 11 11 11 10 9 8 9 9 9 11 14 14 13 12 10 8 8 9 11 12 11 11 10 10 10 nan
nan nan nan nan nan nan nan nan nan nan nan nan nan nan nan nan nan nan nan nan nan nan nan nan nan nan nan nan nan nan nan nan nan nan nan nan nan nan nan nan nan nan nan nan nan nan nan nan nan nan nan nan nan nan nan nan nan nan nan nan nan nan nan nan nan nan nan nan nan nan nan nan nan nan nan nan nan nan nan nan nan nan nan nan nan nan
CAPE
nan nan nan nan nan nan nan nan nan nan nan nan nan nan nan nan nan nan nan nan nan nan nan nan nan nan nan nan nan nan nan nan nan nan nan 1 11 11 33 46 46 61 67 82 82 90 98 102 102 98 93 93 95 95 102 117 117 132 142 146 146 150 151 150 150 159 157 169 179 179 200 224 235 235 244 252 252 252 246 223 223 212 210 209 209 228
nan nan nan nan nan nan nan nan nan nan nan nan nan nan nan nan nan nan nan nan nan nan nan nan nan nan nan nan nan nan nan nan nan nan 0 3 23 23 43 60 60 70 80 92 92 101 109 102 102 92 88 86 93 93 104 115 115 129 129 137 137 135 126 121 121 126 137 155 182 182 207 227 232 232 233 225 217 217 202 186 186 183 187 213 213 239
nan nan nan nan nan nan nan nan nan nan nan nan nan nan nan nan nan nan nan nan nan nan nan nan nan nan nan nan nan nan nan nan nan nan 0 9 28 28 52 67 67 73 87 98 98 111 104 95 95 83 82 86 95 95 109 122 122 130 134 125 125 122 109 97 97 102 122 143 175 175 200 205 210 210 200 184 163 163 159 157 157 180 205 231 231 254
nan nan nan nan nan nan nan nan nan nan nan nan nan nan nan nan nan nan nan nan nan nan nan nan nan nan nan nan nan nan nan nan nan nan 2 15 35 35 55 65 65 77 86 96 96 99 90 81 81 75 75 85 104 104 124 129 129 134 131 122 122 108 100 93 93 99 105 129 151 151 167 166 164 164 150 134 135 135 144 172 172 215 242 262 262 272
nan nan nan nan nan nan nan nan nan nan nan nan nan nan nan nan nan nan nan nan nan nan nan nan nan nan nan nan nan nan nan nan 1 1 10 25 38 38 51 60 60 66 77 86 86 83 78 68 68 65 71 81 104 104 129 128 128 130 116 107 107 100 93 89 89 94 93 104 119 119 124 124 127 127 124 124 132 132 154 189 189 243 271 288 288 306
nan nan nan nan nan nan nan nan nan nan nan nan nan nan nan nan nan nan nan nan nan nan nan nan nan nan nan nan nan nan nan nan 4 4 16 27 32 32 38 44 44 54 61 67 67 69 61 61 61 58 65 81 92 92 112 115 115 104 96 93 93 87 88 82 82 88 93 98 99 99 104 109 113 113 119 125 134 134 156 191 191 253 285 296 296 317
nan nan nan nan nan nan nan nan nan nan nan nan nan nan nan nan nan nan nan nan nan nan nan nan nan nan nan nan nan nan nan nan 3 3 10 15 17 17 16 25 25 33 42 52 52 51 48 49 49 50 61 69 80 80 86 83 83 85 81 78 78 76 75 81 81 86 94 90 101 101 100 104 111 111 118 126 134 134 149 198 198 259 294 308 308 313
nan nan nan nan nan nan nan nan nan nan nan nan nan nan nan nan nan nan 0 nan nan nan nan nan nan nan nan nan nan nan nan nan nan nan nan nan nan nan nan 0 0 11 24 36 36 34 32 34 34 34 41 43 47 47 48 48 48 49 45 46 46 49 66 83 83 96 103 100 99 99 97 98 101 101 110 123 152 152 175 189 189 245 275 277 277 284
nan nan nan nan nan nan nan nan nan nan nan nan nan nan nan nan 0 0 1 1 1 nan nan nan nan nan nan nan nan nan nan nan nan nan nan nan nan nan nan 9 9 19 21 26 26 25 24 21 21 22 24 25 32 32 29 28 28 24 25 26 26 39 67 85 85 93 101 101 93 93 96 89 98 98 130 151 179 179 195 197 197 199 202 224 224 250
nan nan nan nan nan nan nan nan nan nan nan nan nan nan nan nan nan nan nan 1 1 4 0 0 0 nan nan nan nan nan nan nan nan nan 0 nan 2 2 0 nan nan 1 6 12 12 11 8 5 5 4 3 8 14 14 13 12 12 13 14 22 22 40 63 81 81 88 90 88 87 87 86 97 124 124 152 185 177 177 173 156 156 142 149 166 166 200
nan nan nan nan nan nan nan nan nan nan nan nan nan nan nan nan nan nan 0 4 4 5 5 6 6 2 nan nan nan nan nan nan nan nan nan nan nan nan nan nan nan nan nan nan nan nan nan nan nan nan 1 3 8 8 9 7 7 9 16 25 25 44 63 70 70 72 74 74 84 84 94 121 146 146 164 170 154 154 132 111 111 103 111 129 129 159
nan nan nan nan nan nan nan nan nan nan nan nan 2 2 5 2 2 2 6 9 9 8 7 8 8 9 1 nan nan nan nan nan nan nan nan nan nan nan nan nan nan nan nan nan nan nan nan nan nan nan 0 3 5 5 5 5 5 11 20 32 32 39 49 56 56 55 62 76 93 93 120 143 152 152 168 140 113 113 99 96 96 98 110 127 127 157
nan nan nan nan nan nan nan nan 9 9 11 12 9 9 7 9 15 15 14 10 10 15 14 13 13 11 5 nan nan nan nan nan nan nan nan nan nan nan nan nan nan nan nan nan nan nan nan nan nan nan 0 2 2 2 1 4 4 14 25 34 34 41 50 52 52 58 69 88 108 108 141 148 140 140 126 107 98 98 94 101 101 111 128 137 137 162
nan nan nan 0 0 4 7 12 13 13 13 9 7 7 11 15 22 22 19 15 15 16 16 19 19 13 6 nan nan nan nan nan nan nan nan nan nan nan nan nan nan nan nan nan nan nan nan nan nan nan 0 0 0 0 1 7 7 18 29 35 35 42 52 56 56 69 89 108 124 124 135 122 109 109 97 93 97 97 98 106 106 121 136 144 144 159
0 1 2 7 7 12 15 11 12 12 5 4 7 7 9 12 21 21 17 12 12 16 19 16 16 9 7 3 nan nan nan nan nan nan nan nan nan nan nan nan nan nan nan nan nan nan nan nan nan nan nan nan nan nan 2 12 12 23 30 37 37 45 59 69 69 84 100 110 112 112 105 98 90 90 92 91 100 100 102 113 113 120 126 140 140 155
2 4 5 10 10 13 8 6 5 5 5 7 8 8 11 9 17 17 16 12 12 18 15 9 9 7 12 16 8 8 1 nan nan nan nan nan nan nan nan nan nan nan nan nan nan nan nan nan nan nan nan nan 0 0 3 14 14 22 28 41 41 55 69 75 75 90 97 96 90 90 84 86 82 82 90 88 97 97 108 113 113 120 132 146 146 180
8 6 3 2 2 4 3 4 5 5 10 13 17 17 22 18 16 16 11 19 19 19 12 11 11 10 12 19 6 6 nan nan nan nan nan nan nan nan nan nan nan nan nan nan nan nan nan nan nan nan nan nan 1 1 4 9 9 19 29 44 44 55 71 77 77 81 79 76 73 73 75 77 81 81 83 87 94 94 99 115 115 126 146 179 179 212
4 2 2 3 3 3 3 3 9 9 14 13 16 16 24 28 24 24 20 16 16 12 10 12 12 16 12 4 4 4 nan nan nan nan nan nan nan nan nan nan nan nan nan nan nan nan nan nan nan nan nan 0 1 1 3 9 9 21 34 44 44 54 65 67 67 65 61 62 65 65 68 74 77 77 84 90 98 98 113 130 130 156 178 220 220 230
7 7 5 4 4 3 7 12 11 11 6 4 7 7 10 12 14 14 13 17 17 12 10 13 13 14 7 3 1 1 nan nan nan nan nan nan nan nan nan nan nan nan nan nan nan nan nan nan nan nan nan 0 0 0 2 9 9 24 39 48 48 52 53 55 55 52 56 58 62 62 71 76 78 78 83 99 114 114 144 171 171 192 190 212 212 214
9 9 6 5 5 7 10 12 6 6 3 6 7 7 6 9 9 9 10 13 13 10 13 13 13 11 6 6 nan nan nan nan nan nan 0 0 nan nan nan nan nan nan nan nan nan nan nan nan nan nan nan nan 0 0 3 12 12 31 42 47 47 46 45 45 45 44 48 56 61 61 62 70 80 80 95 119 157 157 168 179 179 175 168 172 172 164
3 2 6 7 7 5 5 3 1 1 3 8 5 5 5 9 7 7 7 8 8 9 9 13 13 13 15 15 10 10 nan nan 1 1 3 3 1 1 nan nan nan nan nan nan nan nan nan nan nan nan nan nan nan nan 2 17 17 33 42 43 43 41 38 35 35 38 44 53 62 62 66 72 87 87 115 141 165 165 168 153 153 149 138 121 121 111
nan nan 0 4 4 0 nan nan 6 6 13 14 3 3 3 7 5 5 5 8 8 16 19 20 20 25 45 34 25 25 nan nan 2 2 3 6 3 3 nan nan nan nan nan nan nan nan nan nan nan nan nan nan nan nan 3 18 18 32 39 38 38 35 31 28 28 31 40 50 62 62 68 87 111 111 137 157 159 159 139 128 128 114 105 101 101 86
nan nan 0 3 3 2 0 3 7 7 19 16 14 14 8 12 13 13 15 17 17 18 18 34 34 21 27 19 1 1 nan 1 4 4 4 7 1 1 nan nan nan nan nan nan nan nan nan nan nan nan nan nan nan nan 2 14 14 27 30 30 30 28 22 24 24 30 34 49 65 65 77 102 133 133 154 154 135 135 116 102 102 95 96 87 87 69
1 3 7 4 4 nan 0 5 10 10 8 3 5 5 8 8 8 8 8 7 7 4 4 6 6 12 23 15 2 2 1 3 4 4 5 5 0 0 nan nan nan nan nan nan nan nan nan nan nan nan nan nan nan nan 0 9 9 19 21 19 19 21 22 25 25 26 31 45 70 70 92 114 141 141 154 145 125 125 99 93 93 96 91 75 75 48
23 16 13 8 8 15 19 26 28 28 35 46 44 44 31 30 25 25 12 4 4 3 9 10 10 15 34 13 6 6 1 2 2 2 5 3 nan nan nan nan nan nan nan nan nan nan nan nan nan nan nan nan nan nan nan 3 3 8 9 12 12 15 19 21 21 23 30 49 74 74 98 123 145 145 149 137 117 117 92 90 90 90 81 56 56 33
76 83 73 65 65 57 41 33 57 57 60 34 67 67 111 95 59 59 29 19 19 25 31 24 24 15 20 11 4 4 nan 0 1 1 4 1 nan nan nan nan nan nan nan nan nan nan nan nan nan nan nan nan nan nan nan 0 0 2 3 6 6 9 13 17 17 21 29 52 72 72 93 111 134 134 140 133 112 112 100 88 88 83 67 40 40 14
102 88 59 28 28 11 10 10 15 15 23 21 23 23 85 101 57 57 25 29 29 31 23 12 12 8 10 9 2 2 nan nan 0 0 5 2 0 0 nan nan nan nan nan nan nan nan nan nan nan nan nan nan nan nan nan nan nan nan 0 2 2 5 9 13 13 21 26 43 58 58 80 104 121 121 123 118 107 107 95 86 86 71 52 24 24 14
63 36 15 7 7 2 4 11 16 16 24 36 53 53 80 88 37 37 15 23 23 17 9 6 6 5 9 9 nan nan nan nan 0 0 2 2 1 1 nan nan nan nan nan 2 2 1 0 nan nan nan nan nan nan nan nan nan nan nan nan 1 1 2 5 11 11 18 24 35 46 46 63 84 97 97 104 100 97 97 93 82 82 66 41 17 17 12
12 4 5 10 10 13 13 14 13 13 24 49 66 66 78 61 33 33 23 27 27 17 7 8 8 10 12 13 nan nan nan 0 1 1 0 0 2 2 nan nan nan nan nan 1 1 0 nan nan nan nan nan nan nan nan nan nan nan nan nan 0 0 0 2 7 7 14 21 24 32 32 46 62 78 78 86 89 87 87 81 74 74 61 28 16 16 14
0 1 2 7 7 12 12 4 8 8 27 42 62 62 48 32 24 24 22 20 20 10 12 17 17 10 11 7 nan nan nan nan 0 0 0 0 3 3 nan nan nan nan nan 2 2 1 0 1 1 nan nan nan nan nan nan nan nan nan nan nan nan nan 0 4 4 10 13 15 17 17 26 40 51 51 63 67 65 65 70 68 68 48 17 15 15 13
nan nan nan nan nan 0 nan 0 5 5 23 38 36 36 35 17 8 8 7 7 7 7 11 13 13 15 15 12 3 3 0 0 1 1 1 4 3 3 nan nan nan nan nan 8 8 2 0 2 2 1 nan nan nan nan nan nan nan nan nan nan nan nan 0 2 2 4 6 7 8 8 9 17 24 24 40 43 50 50 56 60 60 39 15 16 16 14
2 0 0 nan nan 0 0 2 7 7 9 9 8 8 8 7 7 7 7 5 5 4 6 4 4 4 3 2 3 3 1 0 1 1 nan nan 2 2 1 14 14 19 0 21 21 15 9 4 4 0 nan nan nan nan nan nan nan nan nan nan nan nan nan 0 0 2 1 3 4 4 7 8 10 10 12 12 15 15 26 29 29 31 21 15 15 12
3 2 1 1 1 2 2 5 10 10 11 9 9 9 6 5 6 6 4 2 2 3 3 2 2 2 2 1 2 2 1 1 5 5 1 1 7 7 8 13 13 15 19 23 23 24 15 4 4 0 nan nan nan nan nan nan nan nan nan nan nan nan nan 0 0 0 1 1 3 3 6 8 10 10 9 9 12 12 18 25 25 23 22 14 14 14
4 4 3 2 2 4 7 16 15 15 9 9 7 7 2 1 2 2 3 2 2 2 2 2 2 1 1 2 3 3 1 1 16 16 9 3 12 12 13 20 20 14 15 14 14 9 3 1 1 1 0 nan nan nan nan nan nan nan nan nan nan nan nan 0 0 0 0 0 2 2 4 6 8 8 5 7 9 9 13 16 16 17 17 15 15 14
5 4 3 1 1 2 5 10 12 12 8 5 2 2 1 0 0 0 1 3 3 3 3 3 3 3 2 1 1 1 1 1 7 7 6 3 3 3 7 13 13 16 16 9 9 4 3 2 2 3 2 0 nan nan nan nan nan nan nan nan nan 0 0 2 2 1 0 0 2 2 3 5 3 3 2 4 8 8 10 11 11 11 12 16 16 17
2 1 0 0 0 2 7 13 10 10 4 2 0 0 0 0 0 0 0 1 1 3 4 3 3 3 2 0 0 0 0 0 1 1 3 3 2 2 5 8 8 12 10 6 6 4 4 2 2 1 2 0 nan nan nan nan nan nan 0 0 0 1 2 2 2 2 1 1 2 2 4 4 2 2 2 4 7 7 8 7 7 7 9 12 12 12
1 0 0 0 0 3 12 13 5 5 3 1 0 0 0 0 nan nan nan 0 0 0 1 2 2 1 1 nan nan nan nan nan 0 0 1 3 2 2 0 3 3 4 2 1 1 2 2 1 1 0 0 0 nan nan nan nan nan 0 1 2 2 3 4 4 4 2 1 2 2 2 3 4 3 3 3 5 4 4 3 4 4 4 6 7 7 8
2 0 0 3 3 12 12 3 2 2 2 2 1 1 0 nan nan nan nan 0 0 nan nan nan nan nan nan nan nan nan nan nan nan nan nan 1 0 0 nan nan nan nan nan nan nan 0 2 1 1 0 0 nan 0 0 1 0 0 1 2 4 4 5 4 4 4 3 1 2 2 2 3 4 3 3 3 3 0 0 0 nan nan 0 3 4 4 5
3 2 3 12 12 10 2 1 1 1 2 3 1 1 nan nan nan nan nan nan nan nan nan nan nan nan nan nan nan nan nan nan nan nan nan nan nan nan nan nan nan nan nan nan nan nan 1 2 2 2 2 1 1 1 1 1 1 2 4 6 6 4 3 4 4 2 2 2 3 3 3 4 4 4 3 1 nan nan nan nan nan 0 1 1 1 2
8 13 10 9 9 3 1 1 0 0 1 5 2 2 0 nan nan nan nan nan nan nan nan nan nan nan nan nan nan nan nan nan nan nan nan nan nan nan nan nan nan nan nan nan nan nan 0 0 0 1 3 2 3 3 3 3 3 5 11 6 6 3 3 3 3 2 1 3 5 5 4 3 3 3 1 0 nan nan nan nan nan 0 1 2 2 1
23 25 5 3 3 3 3 2 1 1 0 0 nan nan nan nan nan nan nan nan nan nan nan nan nan nan nan nan nan nan nan nan nan nan nan nan 0 0 nan nan nan nan nan nan nan nan nan 0 0 0 1 3 6 6 7 7 7 14 18 9 9 6 2 2 2 1 1 4 5 5 5 3 1 1 nan nan nan nan 0 0 0 0 1 2 2 2
29 7 2 1 1 1 0 0 0 0 nan nan nan nan nan 1 nan nan nan nan nan nan nan nan nan nan nan nan nan nan nan nan nan nan nan nan nan nan nan nan nan nan nan nan nan nan 0 0 0 1 1 3 7 7 7 8 8 15 19 14 14 7 1 0 0 0 1 4 5 5 6 2 0 0 0 nan nan nan nan nan nan 1 1 0 0 0
6 2 1 1 1 0 nan nan nan nan nan nan nan nan nan 1 1 1 nan nan nan nan nan nan nan nan nan nan nan nan nan nan nan nan nan nan nan nan nan nan nan nan nan nan nan nan nan 1 1 1 1 1 5 5 8 10 10 17 17 14 14 7 1 nan nan 0 2 4 5 5 4 2 0 0 0 0 nan nan nan nan nan 0 0 0 0 nan
3 1 1 nan nan nan nan nan nan nan nan nan 0 0 0 0 nan nan nan nan nan nan nan nan nan nan nan nan nan nan nan nan nan nan nan nan 2 2 0 nan nan nan nan nan nan nan 0 1 1 0 0 0 1 1 5 8 8 12 9 7 7 5 2 1 1 1 2 4 4 4 4 2 1 1 0 nan nan nan nan nan nan nan nan nan nan nan
1 0 nan nan nan nan nan nan nan nan nan nan 0 0 1 nan nan nan nan nan nan nan nan nan nan nan nan nan nan nan nan nan nan nan nan nan 0 0 0 nan nan nan nan nan nan nan nan 0 0 0 0 0 0 0 0 0 0 6 7 5 5 3 2 2 2 3 3 3 3 3 2 1 0 0 0 nan nan nan nan nan nan nan nan nan nan nan
1 nan nan nan nan nan nan nan nan nan nan nan 0 0 0 0 nan nan nan nan nan nan nan nan nan nan nan nan nan nan nan nan nan nan nan nan nan nan nan 0 0 nan nan nan nan nan nan nan nan nan nan nan nan nan nan nan nan 0 2 4 4 3 1 1 1 3 3 2 0 0 0 1 0 0 0 nan nan nan nan nan nan nan nan nan nan nan
0 nan nan nan nan nan nan nan nan nan nan nan nan nan nan nan nan nan nan nan nan nan nan nan nan nan nan nan nan nan nan nan nan nan nan nan nan nan nan nan nan nan nan nan nan nan nan 0 0 0 nan nan nan nan nan nan nan nan 3 3 3 2 0 0 0 1 2 1 0 0 0 0 0 0 0 0 nan nan nan nan nan nan nan nan nan nan
1 0 nan nan nan nan nan nan nan nan nan nan nan nan nan nan nan nan nan nan nan nan nan nan nan nan nan nan nan nan nan nan nan nan nan nan 1 1 nan nan nan nan nan nan nan nan 0 1 1 1 0 0 1 1 2 1 1 1 2 2 2 0 nan nan nan 0 0 0 0 0 nan nan 0 0 0 0 nan nan nan nan nan nan nan nan nan nan
1 0 0 nan nan nan nan nan nan nan nan nan nan nan nan nan nan nan nan nan nan nan nan nan nan nan nan nan nan nan nan nan nan nan nan 0 1 1 1 nan nan nan nan nan nan nan nan 0 0 0 nan 0 2 2 4 6 6 4 1 0 0 nan nan nan nan 0 0 0 0 0 nan nan 0 0 1 1 0 0 nan nan nan nan nan nan nan nan
1 0 nan nan nan nan nan nan nan nan nan nan nan nan nan nan nan nan nan nan nan nan nan nan nan nan nan nan nan nan nan nan nan nan 0 1 1 1 3 0 0 nan nan nan nan nan nan nan nan 0 1 3 4 4 7 6 6 3 0 nan nan nan nan nan nan 0 0 0 0 0 0 0 1 1 2 2 1 1 0 nan nan nan nan nan nan nan
nan nan nan nan nan nan nan nan nan nan nan nan nan nan nan nan nan nan nan nan nan nan nan nan nan nan 0 nan nan nan nan nan nan nan 0 1 2 2 5 4 4 0 nan nan nan nan nan nan nan nan nan 6 13 13 16 3 3 nan nan nan nan nan nan nan nan 0 0 nan 0 0 0 1 1 1 2 2 1 1 0 nan nan nan nan nan nan nan